RH
71 95 100 100 100 100 92 81 74 63 59 33 36 42 50 39 38 45 52 54 66 55 53 65 90 100 98 97 88 99 100 100
100 92 84 84 76 66 68 60 41 31 35 43 58 48 59 58 49 48 62 62 62 62 48 79 96 99 100 100 80 75 88 100
100 100 100 78 62 55 46 40 35 31 32 57 74 59 55 43 42 46 55 56 50 53 40 56 56 56 86 100 100 100 100 95
71 71 60 58 47 43 45 36 32 39 57 58 70 74 77 78 72 73 82 86 65 49 54 45 44 40 71 96 100 100 100 95
81 77 69 67 62 56 48 39 39 46 53 74 94 72 62 54 76 81 82 100 61 50 43 41 35 30 26 60 95 100 100 89
72 52 36 38 34 41 41 45 41 48 62 74 98 73 72 99 76 77 100 100 100 60 82 62 47 41 29 30 50 93 100 100
30 28 27 26 41 55 51 42 45 63 98 100 100 100 96 99 100 94 98 100 97 88 78 91 82 79 62 32 34 43 91 100
33 37 30 38 54 49 45 55 60 77 100 100 97 95 100 100 97 100 100 100 89 99 97 88 82 92 87 77 50 43 43 90
32 37 33 57 84 60 65 71 80 96 86 86 100 100 100 100 100 100 100 100 99 97 100 100 90 95 87 86 73 46 30 48
38 35 48 66 69 88 100 100 100 100 100 100 100 100 99 96 100 100 95 89 75 91 100 100 100 99 92 88 80 59 43 39
34 68 69 95 100 100 100 100 100 100 100 97 85 97 99 99 96 100 100 100 85 83 88 93 82 100 100 98 67 46 36 28
81 94 100 100 100 100 100 100 100 100 89 84 86 97 93 100 100 77 50 48 44 45 56 66 65 57 67 80 79 63 38 27
87 100 95 82 100 98 98 99 74 70 75 82 92 97 74 58 46 35 28 31 28 25 23 28 31 37 27 33 44 46 51 21
75 77 95 100 95 94 97 68 67 80 78 74 47 36 33 31 29 28 15 8 7 7 6 6 7 9 11 10 10 12 17 25
83 100 95 95 100 99 75 61 71 58 38 32 30 28 21 10 6 5 5 4 4 4 4 4 4 4 5 4 5 6 8 10
100 92 96 100 89 68 52 46 32 31 32 26 19 10 6 5 4 4 4 4 4 4 4 4 4 4 4 4 5 5 5 6
90 88 96 95 48 39 32 33 35 28 26 14 7 5 4 4 4 4 3 3 3 3 4 4 4 4 4 5 5 5 5 6
80 95 98 48 40 36 33 36 34 21 8 6 5 4 4 3 3 2 2 2 3 3 4 4 4 4 4 5 5 5 6 7
83 100 70 38 40 36 31 31 12 7 6 5 4 3 3 2 2 2 2 3 3 3 4 4 4 4 5 6 6 6 7 9
Wind_Speed
47 46 43 45 47 49 57 56 57 57 51 54 56 50 54 52 53 55 57 57 54 52 48 49 43 45 55 56 55 51 52 53
51 51 52 52 53 56 57 57 54 54 59 55 54 51 42 41 45 54 54 56 60 58 52 53 54 45 51 53 55 53 54 52
54 55 56 58 58 56 56 58 61 65 63 67 58 50 62 60 59 58 54 58 60 65 60 59 58 54 50 54 50 52 53 53
49 50 54 58 60 58 66 60 68 67 66 70 68 66 65 70 66 70 71 72 77 61 65 64 61 63 55 54 56 57 59 56
61 67 70 68 65 67 67 81 77 70 69 72 75 78 77 78 76 75 80 82 79 64 62 59 57 65 71 63 64 64 65 62
71 71 69 69 76 77 80 85 79 75 81 75 76 82 83 84 82 82 85 90 80 73 68 69 66 65 66 72 73 70 70 76
68 72 74 77 79 80 86 82 81 80 81 79 86 93 92 86 91 95 95 101 88 80 72 74 80 79 76 73 76 78 76 78
75 74 83 85 83 85 86 84 81 83 82 90 91 91 92 104 104 102 100 97 91 82 83 81 79 86 86 86 82 81 80 85
83 84 92 89 89 93 85 85 87 86 90 95 102 111 109 111 105 104 100 96 90 85 90 92 92 90 88 92 91 86 93 87
86 92 95 97 93 91 94 93 93 95 98 103 121 125 121 113 106 100 97 97 94 92 93 98 99 98 98 98 97 96 94 97
95 100 100 96 100 99 102 101 106 110 115 133 120 108 108 105 105 106 105 108 107 107 108 107 105 109 107 107 105 100 98 108
99 99 96 106 111 106 113 119 123 126 129 110 109 110 113 115 116 118 118 116 118 116 116 116 118 118 119 120 122 120 109 104
102 105 111 114 116 122 129 126 124 113 112 115 115 120 122 123 126 127 122 123 122 120 116 117 117 123 121 121 125 124 121 114
113 116 121 125 132 137 136 126 115 116 116 120 123 124 128 131 128 125 122 118 116 114 110 108 112 111 115 119 118 120 121 122
121 125 131 137 143 135 127 120 119 122 123 123 127 130 126 119 115 110 106 102 99 97 94 93 93 94 98 100 98 100 104 108
126 132 137 143 132 129 122 123 125 126 128 131 124 118 111 105 101 96 91 89 86 83 79 79 80 83 85 83 83 83 85 90
133 139 143 141 132 125 124 127 130 132 130 123 113 106 100 94 92 89 84 79 73 74 69 66 68 70 72 71 71 69 72 77
140 141 147 135 129 130 131 134 134 126 117 110 102 96 91 86 83 78 72 70 66 64 61 59 60 61 62 62 60 61 62 68
149 147 144 133 134 137 138 133 122 113 106 99 94 86 78 76 72 69 66 62 60 57 55 53 53 55 54 54 55 54 56 60
Wind_Direction
286 284 282 285 286 283 288 292 295 297 296 298 297 291 291 290 290 292 292 288 287 286 278 276 274 273 262 258 261 264 265 265
283 283 283 286 287 288 289 287 295 300 294 298 298 289 295 306 301 289 288 290 285 280 273 273 272 268 263 259 261 260 262 266
282 280 284 288 288 285 283 285 292 297 296 303 307 297 304 304 308 312 301 296 298 278 273 275 269 264 263 252 254 259 264 266
278 282 286 291 286 283 290 294 296 300 296 300 304 305 300 298 295 298 303 305 305 281 272 269 267 263 263 253 246 248 249 253
286 289 289 292 294 297 299 303 304 299 297 294 296 304 302 299 292 293 299 300 300 286 263 264 269 266 259 253 244 249 244 244
289 293 303 302 304 301 301 301 297 299 299 295 291 297 297 292 292 288 290 295 292 286 273 263 263 266 262 257 246 243 244 239
298 299 302 306 305 302 301 299 293 293 294 291 291 292 294 293 290 290 292 293 291 278 271 266 260 259 261 257 257 250 243 240
302 303 306 304 302 302 297 295 295 291 286 286 295 292 290 293 293 292 289 286 285 276 272 272 269 260 259 260 263 253 248 242
299 303 305 302 295 300 296 293 294 288 287 287 291 295 293 294 291 289 284 281 280 275 268 267 272 266 262 259 259 257 244 246
302 303 297 300 295 299 303 300 292 292 288 287 293 293 293 293 291 286 286 284 284 279 273 269 269 267 266 264 262 260 251 244
301 300 300 298 302 305 303 301 298 295 293 295 295 293 294 293 291 289 288 286 284 282 280 276 273 269 265 263 262 263 258 240
297 300 299 304 304 301 300 299 297 296 295 297 301 299 298 296 292 290 288 286 285 281 277 274 272 270 267 264 263 263 256 251
300 300 302 303 303 303 302 302 303 304 306 304 301 297 294 293 292 289 288 285 281 277 274 272 269 268 266 264 262 260 256 247
302 301 304 305 305 307 309 311 309 306 303 299 297 295 294 292 290 287 284 281 278 277 275 272 268 266 264 263 262 259 256 253
303 304 306 307 309 311 311 309 306 302 299 298 297 296 294 292 287 285 283 282 279 276 274 271 268 264 262 262 261 259 257 255
305 306 307 311 311 311 308 305 303 302 300 299 300 297 294 291 288 287 284 281 280 276 272 269 265 262 261 261 259 258 255 254
307 310 311 312 311 307 306 304 303 302 303 302 300 296 294 292 290 287 284 281 277 276 272 268 265 263 262 260 258 255 252 249
309 312 313 311 309 307 305 305 305 305 304 301 298 297 294 292 289 286 285 282 280 276 272 268 264 262 261 259 257 253 250 247
311 312 312 309 307 305 306 307 307 306 304 301 298 296 294 291 289 288 286 283 280 276 272 267 263 260 259 258 254 249 246 244